COSMOS 1691 DEB, 43317

Orbit data source: Space-Track

COSMOS 1691 DEB, 43317 is space debris in LEO originally from a launch on Wed, 09 Oct 1985 UTC launched from the Plesetsk Missile And Space Complex (PKMTR). Debris objects in space refer to the collection of defunct objects orbiting the Earth. Examples of debris include non-operational satellites, rocket bodies, and fragments generated from explosions, collisions, or faulty payload assembly.

Loading next visibility...
Identifier
43317, 1985-094AB
Orbit
LEO
Country
Flag of CISCIS
Related business
Manufacturer
Unknown
Mission
Spacecraft
Bus & Motor
Unknown
Mass
Unknown
Launch date (UTC)
1985-10-09 (40 years ago)
Launch vehicle
Unknown
Launch site
Plesetsk Missile And Space Complex (PKMTR)
Object type
Payload
Rocket body
Debris
Shape & HBR
Unknown shape, 0.1 m
Radar Cross Section
Small (<0.1 m²)

Expand to show TLE details & history
Last TLE update: 2 days ago

TLE from 2 days ago
0 COSMOS 1691 DEB
1 43317U 85094AB  25293.21377438  .00000584  00000-0  26387-2 0  9995
2 43317  82.5582 208.1027 0006305 173.0311 187.0878 12.76633315554639
Epoch: 2025-10-20T05:07Z
TLE epoch observation values (Epoch: 2025-10-20T05:07:50.106Z)
Latitude
0.00008°
Longitude
102.22463°
Altitude
1,362.625 km
Speed
7.175 km/s
True Right ascension
13h 52m 24s
True Declination
0° 00' 00"
Sunlit
Object was in daylight at epoch
Visualization orbit readout
Latitude
Unknown
Longitude
Unknown
Altitude
Unknown
Speed
Unknown
Apparent Right ascension
Unknown
Apparent Declination
Unknown
Sunlit
N/A
Visualization observer readout
Local Sidereal Time
10:08:29
Azimuth
Unknown
Elevation
Unknown
Doppler factor
Unknown
Orbital elements
Apogee altitude
1,357.211 km
Perigee altitude
1,347.463 km
Semi-major axis
7,730.474 km
Eccentricity
0.00063
Inclination
82.5582°
RAAN
208.1027°
Arg. of periapsis
173.0311°
True anomaly
187.07889°
Mean anomaly
187.0878°
Eccentric anomaly
187.08335°
Mean motion
3.19326 °/min
Orbital period
112.74 mins
BSTAR
0.0026387
Loading maneuver chart data...
Computing Atmospheric mass density...
Loading historical data...
Loading historical data...
Loading historical data...
Loading historical data...
Loading historical data...
Loading historical data...
Loading historical data...

Documentation

Showing up to 5 results
|